Wind_Speed
20 21 21 21 21 20 19 19 18 17 16 15 15 14 13 14 14 14 13 14 15 15 15 16 16 16 16 15 15 15 15 15 15 15 16 16 15 15 15 15 16 16 16 18 19 20 21 25 28 30 32 33 36 37 38 41 40 41 39 38 39 38 37 35 32 31 31 30 29 27 29 31 30 29 33 36 36 37 39 33 26 28 28 23 22 20 21 25
21 21 21 21 21 21 20 19 19 18 17 16 15 14 14 14 14 13 13 14 15 16 16 17 17 16 16 14 13 14 14 13 12 14 15 15 15 15 16 16 16 16 15 16 16 17 17 19 22 25 27 29 33 35 37 38 40 40 36 37 40 38 35 33 33 32 30 30 30 29 29 33 32 27 28 35 35 35 39 39 33 30 33 33 27 23 24 23
21 21 22 22 22 22 21 20 20 19 18 17 16 15 15 15 14 13 14 15 15 15 16 16 16 16 15 13 12 12 13 13 12 12 13 14 14 13 14 16 16 16 16 15 16 16 16 17 17 19 22 24 28 33 34 34 38 40 35 35 38 37 34 31 32 32 30 29 29 29 29 30 32 27 25 30 32 32 35 40 41 35 34 41 36 28 26 23
22 22 22 22 22 22 22 21 21 20 19 18 17 17 16 16 15 14 14 16 16 16 16 15 15 15 15 14 13 12 13 15 14 12 12 12 12 12 12 14 15 15 16 16 16 16 16 16 15 16 18 19 22 30 33 32 35 35 35 36 32 30 31 30 31 32 28 26 27 27 27 28 29 28 27 27 29 32 34 36 39 37 34 38 40 35 30 28
22 22 22 22 22 22 22 22 21 21 20 19 19 18 17 17 16 15 15 16 16 16 15 15 15 14 14 15 14 14 13 12 13 13 12 12 13 13 12 13 14 14 15 16 16 17 17 16 16 15 16 15 17 25 28 28 31 31 32 37 33 25 26 26 29 35 35 30 31 29 27 28 27 28 31 28 30 34 33 32 33 35 33 32 39 38 33 32
23 23 23 22 22 22 22 22 22 21 20 20 19 19 18 17 16 15 15 16 16 15 15 15 15 15 15 15 15 16 13 10 13 14 13 13 13 13 13 12 13 14 14 15 16 17 17 17 16 15 15 15 15 18 20 22 29 31 30 36 36 28 26 24 25 34 39 37 38 34 28 27 26 29 33 32 34 34 30 28 29 32 34 33 37 41 38 35
23 23 23 23 23 23 22 22 22 21 21 20 20 19 19 18 17 16 15 16 16 15 15 15 15 15 16 16 15 15 13 11 13 13 12 12 12 13 13 12 13 13 14 14 15 16 16 17 16 16 16 14 16 17 18 23 28 32 30 27 27 28 33 34 33 36 39 40 39 36 34 32 30 30 32 33 35 35 30 27 27 30 34 36 39 42 42 39
23 24 24 24 23 23 23 22 22 22 21 21 21 20 19 19 18 17 16 16 16 15 14 14 13 13 13 13 13 11 11 11 10 10 10 10 11 12 12 12 13 13 14 14 15 16 15 16 17 17 15 13 17 18 20 24 24 28 30 23 23 30 37 41 43 41 38 37 36 37 39 38 36 33 32 34 36 34 33 30 26 28 33 36 38 39 37 36
23 24 24 24 23 23 23 23 23 22 22 22 21 20 20 20 19 18 17 15 15 14 13 12 11 11 11 11 10 9 9 10 9 8 8 8 9 10 10 11 12 12 13 13 14 15 15 18 18 17 15 15 20 19 20 22 17 20 24 24 29 34 36 39 44 43 37 32 30 34 37 36 38 40 41 42 40 33 31 34 29 28 33 35 36 38 37 35
24 24 24 24 23 23 23 23 23 23 22 22 21 21 21 20 20 19 17 15 14 13 12 11 11 11 10 11 10 8 9 10 8 8 8 8 8 8 9 9 10 11 12 13 14 14 16 17 19 19 17 18 21 19 21 20 17 20 23 27 33 35 36 38 39 39 37 32 30 32 32 32 34 42 49 48 44 36 30 32 31 32 37 35 33 34 38 39
24 25 24 24 23 23 24 23 23 23 23 22 22 21 21 21 20 19 17 15 14 13 12 11 11 11 10 10 9 8 9 9 8 8 7 7 8 8 8 9 9 10 11 12 14 15 16 17 17 16 15 18 21 19 21 22 23 25 26 29 30 29 30 32 34 36 38 36 33 30 29 31 32 41 53 46 35 34 33 31 32 38 40 37 35 33 33 37
24 25 24 24 24 24 24 24 24 24 23 23 22 22 22 21 20 19 16 15 14 13 12 11 11 10 9 9 8 7 8 8 8 7 7 7 7 8 8 8 9 9 10 11 13 14 14 15 16 14 14 18 18 15 19 24 25 25 26 27 24 22 23 26 30 32 34 34 31 26 27 34 37 46 55 43 29 28 32 31 34 41 39 37 38 33 32 35
24 25 25 25 24 24 24 24 24 24 24 23 23 22 22 22 20 18 16 15 14 13 12 10 9 8 7 6 6 6 7 8 9 9 9 8 8 8 8 9 9 9 9 10 12 13 12 12 13 14 16 17 15 15 20 22 22 22 21 21 19 20 23 24 24 25 26 30 29 26 30 37 40 46 47 36 31 32 34 34 36 41 39 39 39 34 35 37
25 25 25 26 25 25 24 24 24 24 24 24 24 23 23 22 20 18 16 15 14 12 10 8 8 7 5 4 5 7 8 10 11 12 13 13 12 12 12 11 10 10 9 9 11 13 12 12 11 12 15 15 15 19 20 19 20 18 15 16 18 19 19 15 16 19 21 25 26 26 32 39 38 39 36 31 31 35 42 42 36 39 40 40 40 38 38 39
24 25 25 26 25 25 24 24 25 25 24 24 24 23 23 22 20 18 16 15 13 10 8 8 7 6 4 5 7 9 9 10 12 13 14 14 14 15 15 15 15 14 12 10 10 11 12 12 10 9 12 14 14 17 16 15 17 15 16 19 19 19 17 12 12 16 18 20 23 26 33 39 36 32 28 29 31 34 46 47 37 35 40 41 41 40 40 39
25 24 25 25 26 25 25 25 24 24 24 24 24 23 23 21 19 17 15 14 11 8 7 7 7 6 4 6 9 10 11 11 11 12 12 11 12 13 15 16 17 17 16 14 13 13 12 12 11 10 12 12 11 11 12 14 16 16 18 20 19 18 17 13 11 14 17 18 20 27 32 34 32 29 26 28 30 32 42 47 41 37 38 42 42 41 41 40
25 25 25 25 26 25 25 25 24 24 24 24 24 23 22 20 18 16 14 13 10 7 7 5 7 6 4 7 9 10 13 14 13 12 10 9 9 11 12 14 16 17 18 17 16 14 12 11 12 12 12 10 9 9 11 15 17 16 18 18 20 19 16 14 10 10 14 18 21 25 31 31 25 23 25 29 31 35 40 42 42 40 39 42 42 42 43 42
25 25 25 25 25 25 25 24 24 24 23 23 23 22 21 19 18 15 13 12 9 7 6 6 8 6 3 9 11 11 14 17 18 14 9 8 8 8 10 11 14 15 15 15 15 13 12 11 11 10 10 10 9 10 12 14 13 13 15 13 15 16 17 18 14 10 10 15 20 23 28 30 26 22 23 26 29 37 44 41 40 40 38 41 42 42 43 44
26 26 26 26 25 25 25 24 24 23 23 24 23 21 20 19 18 14 13 12 7 5 5 6 7 5 5 10 12 13 16 17 19 18 11 7 7 7 9 9 11 12 10 8 10 12 10 10 11 11 11 11 10 11 13 13 11 12 13 12 13 14 15 16 15 13 10 12 17 21 24 23 24 25 25 24 23 30 42 43 42 42 39 40 42 41 41 42
26 26 26 26 26 25 24 24 23 22 22 22 22 21 20 19 17 14 13 11 7 5 5 6 7 7 8 10 12 15 17 16 17 18 12 7 8 8 9 8 9 9 7 7 8 12 12 10 12 13 11 10 10 12 13 13 13 13 15 16 16 18 18 16 14 14 12 14 19 21 23 21 20 23 25 24 21 25 37 43 45 47 45 44 44 43 41 41
27 27 27 27 26 25 24 24 23 22 22 21 21 21 18 18 16 13 12 9 6 6 6 7 8 11 11 12 14 16 17 14 13 16 10 7 9 8 8 8 7 6 7 10 9 12 13 11 13 12 11 11 11 12 13 13 13 14 15 17 17 19 20 18 16 15 12 14 19 20 22 23 21 22 22 23 24 28 36 41 45 48 48 47 48 47 44 43
28 27 27 27 27 26 25 24 23 21 22 21 21 19 17 17 15 14 13 8 7 7 7 8 10 13 14 15 16 17 16 10 7 12 9 9 10 5 5 7 5 6 9 12 10 10 12 12 12 10 10 12 12 13 14 14 14 15 16 16 18 17 17 17 17 17 15 17 19 19 22 23 23 25 23 23 26 30 32 34 37 40 43 45 47 49 48 46
27 27 27 26 26 26 25 24 22 22 22 21 20 19 17 16 15 15 13 9 8 8 7 9 12 14 15 16 17 16 16 10 3 9 11 11 11 6 7 8 7 9 10 11 9 10 11 9 8 10 11 11 11 13 13 14 15 16 16 17 18 16 15 16 13 11 12 17 19 18 21 24 23 25 26 24 26 28 27 28 29 32 39 43 44 46 47 48
27 26 26 26 26 26 25 24 22 21 21 21 20 20 19 17 17 15 12 10 8 6 6 10 13 14 14 16 16 15 15 10 6 12 14 11 9 9 10 9 9 11 11 11 11 14 15 11 10 13 13 10 11 12 12 14 15 16 17 18 18 15 13 14 12 10 11 15 19 19 22 25 26 27 28 26 27 29 29 29 30 33 42 48 47 45 44 46
27 26 25 26 26 26 25 23 21 21 20 20 20 21 20 19 18 16 14 10 3 3 7 13 14 14 16 16 15 16 14 10 11 15 13 9 9 11 12 12 11 10 9 10 12 15 16 14 14 14 13 12 13 14 14 14 15 16 16 17 17 15 14 14 13 14 15 17 18 20 19 21 25 29 30 28 27 29 31 32 35 37 43 49 51 50 47 47
27 26 26 27 26 26 25 22 22 21 20 19 20 21 20 19 18 16 14 5 4 2 9 12 13 14 18 17 15 15 11 9 16 15 11 10 11 12 12 12 12 11 10 11 14 17 16 15 16 14 13 14 15 16 15 14 15 16 14 13 13 13 15 16 15 15 16 15 13 16 16 15 19 23 25 26 27 29 30 30 33 34 36 42 49 52 50 49
28 27 26 26 27 26 24 23 22 21 20 19 20 21 20 19 17 15 11 1 4 6 11 10 12 14 16 15 14 13 8 10 15 13 12 14 13 14 12 9 12 14 12 12 14 14 13 13 14 12 12 14 16 17 16 15 16 15 10 9 10 12 14 14 15 16 17 16 12 13 16 16 18 20 17 18 23 28 32 31 31 31 30 34 42 49 51 50
29 27 26 27 27 25 24 22 20 20 20 19 20 20 19 18 15 12 7 1 2 11 12 12 16 16 15 12 12 11 10 12 11 10 15 17 13 12 12 10 12 15 13 14 17 13 9 10 12 12 13 15 17 16 14 15 17 15 10 9 10 12 14 13 15 17 16 17 16 17 18 15 18 22 19 17 19 22 28 32 32 31 29 28 32 41 48 49
30 28 27 27 27 25 23 21 20 20 18 18 20 19 19 18 14 10 3 1 6 12 11 13 17 16 14 10 8 11 13 13 10 13 18 17 13 11 11 12 13 16 15 17 22 21 16 15 15 16 17 19 18 16 15 16 17 15 12 12 12 12 14 15 16 18 17 16 17 19 19 14 15 22 23 21 23 24 24 29 31 31 30 27 28 34 41 46
30 29 27 27 27 25 22 19 19 19 17 19 20 19 19 16 11 7 1 2 10 11 11 14 15 16 15 9 7 11 13 13 14 17 17 15 15 16 13 11 12 14 15 17 22 24 21 20 21 22 21 21 19 17 18 19 18 16 15 14 15 15 17 17 18 18 15 15 19 21 22 18 14 18 23 22 23 25 26 27 28 28 28 26 26 31 36 41
30 29 27 27 26 24 21 19 19 18 17 19 19 19 19 13 8 4 2 9 12 9 12 16 16 18 15 11 11 12 12 13 14 16 16 15 15 16 14 11 12 14 14 16 18 18 18 19 23 24 21 18 18 18 18 19 19 18 18 17 17 17 17 18 20 19 12 12 19 21 23 23 17 17 21 21 20 21 24 26 24 23 25 23 23 26 29 31
29 29 28 27 26 23 20 18 19 18 18 19 18 19 17 9 4 3 5 12 10 9 17 18 18 19 14 12 11 12 15 14 13 14 14 14 14 13 12 10 12 14 14 15 15 17 18 18 19 20 19 16 16 18 18 18 20 19 19 19 15 13 12 13 13 13 12 14 18 19 20 22 23 23 23 22 21 19 20 24 24 23 24 21 20 22 24 25
29 29 28 27 25 22 18 17 17 17 18 18 18 18 13 5 3 5 8 9 9 14 18 18 19 19 15 12 10 12 17 15 13 14 14 14 15 14 13 10 9 11 13 16 18 19 18 13 10 11 13 13 13 17 17 16 18 20 21 21 16 9 8 9 10 9 12 16 19 20 19 18 22 25 26 26 26 22 20 21 23 25 25 22 20 20 20 22
29 29 28 26 24 20 17 16 16 17 17 18 18 16 10 4 4 8 9 9 12 15 16 18 20 18 14 12 12 14 14 11 13 16 15 14 14 14 14 12 10 10 13 16 16 15 14 10 6 7 8 10 11 15 16 14 15 20 21 21 20 18 12 9 9 9 10 15 20 21 17 16 19 20 21 25 29 29 27 25 24 24 24 24 24 23 21 21
29 29 27 25 22 19 16 15 16 16 17 19 18 11 7 6 6 9 10 11 13 14 17 21 18 15 13 11 14 16 13 13 15 15 13 13 14 15 15 14 11 10 10 11 11 12 14 13 10 11 12 11 10 11 13 14 15 17 19 22 24 24 20 15 14 14 12 12 15 18 17 19 21 20 20 21 23 27 28 28 29 28 26 25 27 28 27 25
28 28 26 23 21 18 15 15 15 15 17 19 15 7 7 9 9 10 11 14 14 14 19 20 13 12 11 9 12 14 14 17 17 13 14 15 15 15 14 14 12 10 10 12 13 13 13 13 11 13 16 15 13 12 13 15 14 12 16 23 24 21 19 19 17 16 14 10 12 17 18 20 20 20 22 21 20 22 24 25 28 29 29 27 26 30 32 28
27 27 25 21 20 17 14 15 14 14 18 18 13 9 9 10 11 11 11 15 16 15 16 16 12 12 10 10 13 13 14 17 14 13 17 17 15 14 16 16 11 9 10 12 15 14 15 20 19 18 20 19 15 14 16 19 18 15 16 18 16 14 15 17 13 10 11 10 12 18 20 20 19 18 21 24 24 24 23 23 25 26 28 27 28 31 32 31
26 25 23 20 19 15 14 14 13 15 19 16 12 13 12 12 12 13 14 16 16 13 12 12 11 11 11 13 16 15 16 16 14 16 19 16 12 15 21 18 11 11 13 13 15 15 16 20 21 18 18 17 15 16 18 21 22 22 19 14 12 11 13 15 12 8 9 8 9 17 21 22 22 20 18 20 25 26 23 22 23 23 23 25 27 30 31 32
24 24 21 19 17 14 14 13 12 16 18 13 11 13 14 14 13 13 15 17 16 13 10 9 10 11 12 15 16 16 16 16 16 18 17 13 13 20 22 18 18 21 21 19 18 19 18 16 16 14 12 12 15 17 20 21 20 21 21 18 17 15 13 14 15 12 11 9 8 13 16 17 21 24 22 18 19 23 23 20 20 21 21 22 22 25 29 33
23 21 19 18 16 14 14 12 12 16 16 13 12 14 15 14 13 13 16 17 17 15 13 11 11 12 13 15 16 16 16 16 17 18 16 16 19 22 18 16 25 30 27 23 21 22 22 17 16 17 13 12 16 19 21 20 16 19 22 22 21 19 15 14 16 17 15 9 7 8 10 15 21 21 22 21 16 17 20 19 18 17 17 18 20 22 26 31
21 20 18 18 16 14 13 11 13 16 16 15 15 15 15 14 12 14 16 16 16 17 17 15 11 11 13 15 15 16 17 17 17 19 20 19 19 19 18 21 29 32 30 28 25 24 22 20 20 19 18 20 21 19 19 19 17 19 22 24 23 22 19 13 11 17 19 14 11 8 8 16 20 17 19 23 19 14 17 18 18 17 16 16 18 21 23 26
19 18 17 17 16 13 12 12 14 17 17 17 18 16 15 14 13 14 15 16 16 16 16 14 10 10 11 13 14 15 17 19 19 19 19 19 19 20 24 27 29 31 33 32 27 23 20 22 22 21 24 27 24 19 22 23 21 21 22 23 23 22 23 18 12 13 18 18 18 14 11 15 18 17 15 17 18 16 16 18 17 16 17 17 17 19 20 22
18 16 16 17 16 12 11 14 16 17 17 19 20 18 14 14 14 15 16 16 16 15 15 12 8 10 11 12 14 14 17 20 19 17 18 20 21 22 22 24 28 33 35 32 27 19 14 17 19 20 25 26 20 18 24 25 23 24 26 25 23 23 24 23 18 15 14 16 16 12 12 15 16 15 8 11 17 20 19 19 18 14 15 18 18 17 18 21
18 16 16 18 15 11 13 15 15 16 17 19 21 19 15 14 15 16 16 17 16 17 17 11 8 12 14 13 14 16 17 16 16 19 21 21 22 22 18 22 31 33 30 26 23 17 12 13 14 15 16 15 11 10 13 17 18 22 24 24 23 24 24 23 22 18 14 17 16 10 11 15 14 13 11 12 16 22 23 22 20 15 12 15 16 14 15 17
19 16 17 18 14 11 15 16 15 17 18 19 19 17 15 15 15 16 17 16 17 17 15 10 10 14 14 13 15 18 17 13 15 22 25 22 22 20 18 26 33 28 22 19 17 19 19 17 16 14 10 9 9 7 7 9 11 14 19 23 24 25 25 23 22 19 14 16 19 17 17 16 11 10 12 11 10 15 19 20 17 13 9 9 10 10 10 12
19 17 18 19 14 13 17 18 17 19 19 18 18 17 17 16 14 16 17 16 17 16 12 11 13 13 14 16 19 20 18 13 15 21 24 23 24 23 26 31 29 22 22 21 15 16 21 22 20 19 18 17 20 21 20 19 15 12 14 19 23 26 28 25 24 23 17 14 19 23 21 18 14 11 11 13 12 9 10 13 12 10 10 8 7 7 8 10
19 17 17 18 14 15 19 20 20 20 20 19 18 19 20 18 15 16 17 16 17 15 11 12 15 14 14 19 21 22 21 19 18 21 21 22 26 29 31 29 22 22 25 24 18 13 16 21 20 19 21 23 26 28 25 23 22 17 13 15 20 24 27 30 29 26 18 14 18 20 18 20 21 16 13 14 15 12 11 9 9 11 13 13 11 9 8 9
19 17 16 17 15 16 20 21 21 21 20 19 19 19 20 19 17 18 19 19 17 14 12 14 16 15 14 16 20 23 24 25 26 25 22 24 28 32 31 25 20 22 24 20 17 13 12 18 17 17 22 24 25 23 20 20 21 18 16 16 17 19 25 33 32 26 22 21 19 15 14 19 22 20 19 17 16 18 16 11 9 11 13 13 12 11 10 10
18 17 16 16 16 17 20 21 22 22 21 20 20 21 21 21 20 20 20 21 18 14 14 15 15 15 15 15 19 21 23 25 27 27 27 30 31 30 28 25 21 20 20 17 16 14 10 14 15 17 23 25 21 16 14 15 16 15 15 16 16 16 21 29 31 26 26 28 25 19 18 20 19 18 20 19 17 19 17 11 10 13 12 11 12 12 12 13
18 17 17 17 18 20 21 22 23 22 20 21 22 21 21 22 22 22 20 19 18 16 15 15 16 17 17 17 18 19 21 23 25 27 31 31 27 23 22 23 22 20 19 17 17 16 11 14 16 17 21 21 15 11 11 11 11 11 13 13 14 15 17 24 29 27 26 28 28 25 25 27 25 21 20 20 20 21 19 15 14 14 12 13 13 14 14 15
17 17 17 17 18 21 21 23 24 20 16 20 24 22 21 22 23 25 21 16 17 18 15 15 18 19 18 18 18 18 21 23 24 27 28 24 21 18 19 23 25 24 24 21 19 18 15 18 20 15 16 16 14 13 11 8 9 11 11 12 14 15 17 22 26 27 27 27 26 25 28 31 27 21 21 22 23 25 24 22 19 17 16 16 16 16 16 17
18 16 16 16 17 19 21 22 22 18 16 22 26 23 23 23 23 25 24 17 15 16 16 17 20 21 20 20 19 19 21 23 23 24 21 16 14 15 19 25 27 27 28 26 23 21 17 20 21 16 13 14 14 14 10 6 7 7 6 9 12 15 18 20 23 25 27 26 25 26 29 26 19 14 16 18 19 22 23 22 20 19 19 19 18 18 18 19
Wind_Direction
6 4 4 4 3 2 2 2 2 1 2 1 359 353 344 337 335 333 330 321 315 315 313 311 312 312 311 310 308 303 301 300 296 291 287 283 276 272 269 265 262 258 256 255 254 254 251 247 243 241 239 237 234 230 229 226 224 224 222 226 232 232 233 233 233 234 237 235 230 225 223 231 229 221 225 225 223 226 231 237 241 244 241 228 232 237 208 206
5 3 3 1 0 359 359 359 0 0 0 0 358 353 346 341 338 335 327 320 317 316 313 314 314 314 314 313 311 306 305 305 298 292 288 285 280 273 267 264 262 260 258 256 255 254 253 249 244 241 237 236 236 233 231 228 224 222 221 226 232 233 235 235 236 239 239 235 231 225 223 232 233 223 225 228 223 221 225 231 236 241 243 236 233 234 220 215
5 2 1 360 358 356 356 357 358 359 359 359 357 352 348 344 341 336 327 322 320 318 316 317 315 315 316 314 313 308 307 306 299 294 288 287 285 278 269 264 261 259 258 255 254 253 251 250 246 242 236 234 236 234 232 231 228 223 222 228 232 234 237 239 240 241 240 234 228 223 225 235 236 226 225 229 228 224 222 225 231 236 243 243 238 233 231 225
3 1 0 358 357 355 355 356 357 357 357 357 355 351 348 345 343 338 328 324 324 322 320 319 316 315 313 312 311 308 309 305 299 295 289 287 287 283 274 265 260 257 255 252 251 251 251 251 247 243 237 234 236 235 231 231 232 226 224 230 232 236 238 238 238 231 226 223 220 224 230 236 235 229 226 227 227 227 224 222 227 231 235 243 241 234 237 235
2 0 359 357 355 354 353 354 355 355 355 354 353 350 347 346 344 338 329 324 324 323 322 318 314 311 307 307 306 306 312 303 296 298 292 287 284 281 275 268 262 257 254 252 249 248 249 251 249 248 243 236 238 238 233 230 233 229 227 230 228 235 235 231 235 227 219 218 222 229 233 234 235 231 227 226 226 227 228 225 225 228 226 233 242 237 234 238
0 359 358 356 354 352 352 353 353 353 354 352 351 349 347 346 343 338 329 323 324 322 319 314 308 306 303 303 303 305 307 289 290 298 291 284 280 276 272 267 264 260 256 253 251 249 248 249 249 249 245 239 241 242 235 229 231 231 232 233 231 237 236 226 231 230 226 229 233 235 234 232 233 231 228 226 228 228 228 228 226 228 225 228 241 238 231 234
359 358 357 355 352 351 350 351 352 352 352 351 350 349 346 345 343 339 332 325 324 322 318 312 310 309 304 303 303 304 303 292 293 296 289 283 276 273 271 268 268 265 262 256 252 249 247 248 244 244 244 243 244 241 238 236 236 236 234 236 235 236 236 230 229 231 232 235 237 235 231 228 227 229 230 227 229 230 227 228 229 226 224 228 238 242 237 233
358 358 356 354 351 349 349 350 351 350 350 350 349 348 345 345 343 340 337 330 325 325 324 321 321 318 312 310 309 310 309 306 305 301 293 285 278 277 276 274 273 272 270 265 259 254 250 248 244 244 243 240 241 239 244 246 246 245 238 236 239 237 238 237 234 235 237 238 237 234 232 230 227 229 231 229 230 231 227 226 228 226 222 225 233 240 242 237
358 358 356 353 350 348 348 348 350 350 349 348 348 348 345 345 344 342 340 334 328 331 333 333 330 323 320 319 318 321 317 313 314 308 298 288 284 282 279 279 277 276 276 272 269 262 255 251 247 244 240 240 242 241 247 247 249 249 240 237 241 242 243 243 240 239 237 236 234 232 232 231 230 233 234 233 231 227 227 226 226 227 223 221 226 232 236 236
358 357 355 352 349 347 347 348 349 348 348 348 348 347 345 345 345 344 342 336 332 336 339 336 326 319 319 318 322 326 313 311 316 310 302 295 290 284 283 283 280 279 276 276 275 269 263 260 256 251 249 252 251 247 248 245 241 239 238 242 245 248 250 249 246 242 236 231 229 227 226 227 229 234 236 238 236 230 225 226 224 225 226 224 221 225 230 234
357 356 354 351 349 347 346 347 347 347 347 347 348 347 345 346 347 345 342 338 336 339 339 331 321 318 316 314 318 318 306 308 315 308 302 297 288 282 281 278 278 279 277 278 276 273 271 269 268 264 257 256 255 255 255 249 244 243 245 249 253 256 257 255 250 246 240 234 230 228 228 226 223 231 236 236 236 232 226 224 222 224 229 231 225 224 226 230
357 354 352 350 349 348 347 346 346 347 346 347 349 347 346 348 348 346 342 340 340 340 336 330 326 323 319 316 315 314 310 313 315 308 303 297 286 281 277 273 273 275 276 279 274 271 270 271 274 270 258 258 258 257 257 255 252 252 254 257 260 261 259 259 254 249 245 239 231 229 235 231 224 231 235 232 229 225 223 221 224 229 232 233 231 225 224 226
356 353 351 350 349 348 347 346 346 346 346 347 349 348 348 349 348 346 343 342 342 340 338 336 336 334 330 329 326 324 320 315 311 306 303 301 294 290 284 278 275 276 275 276 278 278 275 272 273 269 264 264 260 253 254 257 259 259 261 263 263 260 258 256 252 246 242 239 232 227 236 236 230 234 235 230 229 226 222 220 226 234 233 233 233 227 226 227
354 352 351 350 349 348 347 346 346 346 346 347 348 349 349 348 349 347 343 344 344 343 343 344 348 344 334 329 330 323 316 312 305 302 303 304 306 304 299 296 292 289 283 276 279 285 287 285 279 276 273 267 261 262 264 263 261 261 262 259 253 256 256 243 232 232 233 238 232 225 235 239 235 236 233 226 230 232 230 227 228 234 233 232 232 230 229 228
353 351 350 350 349 348 347 346 346 345 345 347 348 349 348 349 350 346 344 345 346 347 348 351 354 346 334 328 328 324 318 315 309 305 305 305 308 308 306 307 307 306 305 301 294 292 296 295 291 283 273 272 272 270 270 264 258 252 250 251 247 245 245 233 226 225 225 232 226 220 233 240 237 236 231 224 227 234 236 231 226 229 232 232 231 230 230 228
353 351 350 349 349 348 347 347 346 345 345 346 348 349 348 350 349 346 346 347 350 353 350 354 356 345 341 339 334 334 331 323 319 314 307 303 302 301 302 303 305 306 307 308 306 302 301 296 290 281 272 273 272 266 264 260 253 242 240 248 246 239 238 237 234 224 221 225 219 219 232 240 239 235 229 223 222 228 235 233 227 226 228 230 231 231 231 228
353 351 349 348 348 348 347 347 345 344 345 346 348 348 348 349 349 348 348 350 352 352 349 351 356 351 339 338 335 339 338 326 321 319 312 305 296 292 292 291 294 296 297 298 298 299 299 291 286 286 280 265 247 250 256 255 253 241 235 243 245 240 239 237 228 215 216 222 221 224 233 238 237 233 225 221 222 226 230 231 229 227 226 228 229 230 231 230
351 350 349 347 347 347 347 347 345 344 345 346 347 347 347 349 350 350 350 352 350 349 350 342 357 9 310 320 327 332 336 328 318 318 319 312 301 293 287 283 283 283 291 296 288 288 292 284 279 274 265 252 238 241 249 256 267 255 241 245 249 240 238 241 236 221 210 221 226 228 235 238 236 231 224 222 228 233 232 230 230 229 228 228 227 229 231 231
350 349 348 347 347 347 347 347 345 345 345 346 347 346 347 350 352 351 349 349 344 344 345 331 349 1 301 311 325 328 335 331 317 315 324 319 305 304 299 291 281 276 281 285 276 277 277 269 268 256 246 247 239 237 247 258 268 261 255 261 262 252 244 243 238 231 227 232 233 232 238 240 235 232 230 228 229 234 233 231 231 230 229 228 226 226 228 231
348 348 348 348 347 346 347 347 345 345 346 346 345 346 348 352 353 349 345 342 329 321 323 322 331 336 325 322 329 332 336 335 312 310 324 321 310 315 315 310 297 291 272 246 252 268 268 257 254 250 249 252 246 246 250 252 251 250 255 258 259 257 254 251 244 241 241 246 244 241 243 243 238 234 230 227 224 228 231 230 230 230 230 230 228 226 225 227
347 346 347 348 347 346 346 347 346 345 346 346 347 349 349 351 352 345 339 335 318 312 311 317 325 331 335 331 333 336 340 340 310 310 328 319 320 328 322 323 313 295 260 252 260 270 271 259 251 254 257 254 251 252 250 249 252 251 252 254 255 254 253 253 249 243 240 248 251 246 246 246 240 237 233 229 229 231 233 231 230 230 231 232 231 229 227 226
347 346 346 348 348 347 347 347 346 346 347 347 349 351 350 351 351 342 340 334 313 310 312 324 331 331 333 332 336 340 344 352 306 307 331 324 325 327 308 319 297 262 262 273 279 270 267 261 255 254 253 252 249 251 251 250 251 250 251 252 253 253 255 255 248 243 240 247 253 248 250 250 243 242 240 236 236 234 234 232 231 231 231 233 232 231 229 227
349 347 347 348 349 348 348 346 346 347 348 348 349 350 352 352 350 343 341 332 308 302 315 334 337 333 333 333 336 340 345 358 319 307 327 325 322 314 307 310 278 265 268 272 268 260 263 264 257 250 251 256 252 250 251 250 247 246 246 248 250 250 254 256 244 237 240 243 251 253 255 254 248 245 242 238 237 233 232 231 230 229 228 229 230 230 231 229
350 349 348 348 350 349 348 347 346 348 348 348 349 349 352 351 350 346 339 329 304 284 316 337 339 335 332 331 333 340 341 344 341 325 322 319 317 315 312 303 280 275 271 266 260 258 264 268 266 264 263 255 248 251 247 248 252 247 243 245 252 254 254 257 253 259 263 254 252 253 256 255 248 245 243 240 240 237 233 230 228 228 227 227 227 227 229 229
351 350 349 348 350 349 347 347 345 347 348 349 350 349 351 351 350 347 341 339 298 274 332 337 338 334 330 330 332 341 343 335 338 337 327 318 316 312 308 298 287 278 269 269 265 261 264 265 260 261 261 248 245 250 246 248 255 255 251 248 252 259 259 258 262 267 266 261 250 239 245 252 245 244 243 238 237 237 235 233 231 231 231 229 228 228 228 228
352 351 349 348 349 348 347 347 344 346 349 350 350 349 351 351 350 348 346 359 156 296 334 336 339 335 332 333 333 345 357 332 328 337 337 324 317 313 307 295 286 287 281 274 272 267 262 260 260 257 252 247 245 247 245 243 251 260 258 243 243 253 254 252 254 255 252 258 253 227 234 255 247 241 238 233 233 232 233 234 233 233 233 232 230 229 228 229
354 351 349 347 347 347 347 347 344 346 349 351 351 348 351 352 353 354 350 87 155 324 328 332 336 333 331 331 335 349 355 320 321 329 332 327 323 320 312 290 278 288 293 284 280 274 256 254 264 261 247 243 243 246 243 233 241 256 252 236 243 249 250 248 245 246 248 256 258 229 234 258 255 241 231 226 228 229 229 231 232 232 232 232 232 230 228 229
355 351 349 347 346 346 347 346 343 345 350 352 350 349 351 352 355 358 354 145 12 337 329 332 335 333 332 328 335 343 330 325 329 322 322 324 324 321 312 297 281 277 279 275 272 273 263 259 263 258 251 248 244 244 240 228 235 249 251 250 254 250 249 249 244 245 247 252 252 236 230 248 253 243 234 228 228 228 228 229 231 231 230 230 232 232 229 228
354 351 349 347 345 345 347 346 342 346 351 351 351 351 351 354 359 359 347 195 339 337 330 333 335 336 336 330 327 332 327 329 329 318 322 325 323 320 302 285 279 273 270 266 264 266 270 270 266 258 252 250 250 248 242 234 236 246 256 256 253 250 248 245 245 246 245 244 246 238 229 236 249 242 235 230 229 229 228 229 229 229 230 229 231 233 230 227
353 351 348 347 345 344 347 347 342 347 353 352 353 352 352 359 1 349 258 317 330 326 329 333 336 338 339 332 316 325 331 328 325 325 330 333 328 329 317 290 286 289 278 267 266 269 272 271 265 262 257 252 254 254 245 240 239 242 249 253 252 251 247 243 241 240 244 244 241 239 233 236 249 242 234 230 229 229 229 230 229 228 227 227 229 232 230 228
351 350 347 346 345 344 347 346 344 349 353 354 354 354 356 1 2 359 320 331 327 320 331 330 333 340 339 333 320 320 328 324 327 333 333 334 329 326 326 309 303 308 289 274 274 277 280 270 262 268 272 261 251 252 249 242 239 239 240 247 253 249 243 243 239 233 238 245 238 234 232 235 243 243 237 234 232 231 230 229 228 224 220 221 229 232 229 228
350 349 347 345 345 345 347 346 345 349 353 356 355 358 1 356 3 27 325 327 323 322 331 327 332 341 339 339 327 315 325 323 323 334 332 328 324 317 317 304 297 303 293 289 294 293 288 275 263 266 269 259 245 248 251 241 234 234 233 237 246 249 241 242 240 231 235 243 239 234 232 235 241 243 241 239 237 234 232 230 227 223 220 223 231 229 224 226
349 348 347 345 345 346 347 346 346 349 354 356 357 2 5 343 329 341 326 327 320 321 330 328 333 340 340 342 327 312 327 328 320 329 329 321 320 318 316 306 291 286 284 293 302 300 295 284 261 248 249 252 241 237 244 240 230 227 225 227 233 245 247 242 244 241 239 243 242 236 235 242 245 243 242 241 239 234 230 228 227 227 228 228 229 223 220 222
350 348 346 345 346 346 347 347 348 351 354 355 0 6 5 342 323 331 328 322 319 322 330 331 333 341 342 336 330 330 335 331 325 329 328 324 324 320 316 312 301 293 289 290 293 294 296 294 264 235 245 258 250 237 241 247 240 231 226 229 236 243 247 249 253 255 255 256 248 236 230 235 240 241 241 241 240 237 235 233 233 234 233 230 226 220 217 215
350 348 346 346 347 345 346 349 351 354 353 356 4 6 351 340 326 324 325 320 321 321 329 337 336 335 337 327 332 344 336 326 334 333 327 327 323 313 313 317 313 306 295 286 291 293 291 291 276 259 258 258 254 244 239 244 248 240 230 231 237 240 246 257 267 268 273 276 259 244 239 237 239 245 245 242 238 234 234 235 238 238 234 232 230 224 218 209
350 347 346 348 347 345 347 350 352 353 353 0 9 358 330 333 322 316 323 325 325 319 327 342 342 329 332 321 329 345 332 325 334 331 327 329 322 316 321 325 317 302 286 279 292 297 285 283 281 266 265 267 262 248 235 232 240 242 232 233 236 240 248 257 263 262 261 266 253 246 249 245 244 250 246 238 231 229 228 230 234 235 232 231 232 228 220 209
349 347 347 349 348 346 346 349 352 352 355 4 6 341 326 330 323 318 323 326 327 323 326 338 336 328 331 319 325 337 327 325 329 324 323 322 320 331 337 332 315 294 289 279 281 284 275 277 280 269 267 274 267 248 239 233 235 242 240 238 240 242 247 250 256 256 249 254 250 243 246 246 244 248 244 234 228 229 228 225 227 231 229 227 229 228 221 212
349 348 349 350 349 346 344 347 350 352 358 4 355 338 335 333 325 319 323 327 325 321 322 323 320 323 323 316 321 328 323 322 324 322 322 315 315 334 338 336 324 304 300 287 274 272 274 281 284 272 259 262 255 243 245 239 231 235 243 246 243 239 239 236 237 247 243 249 256 246 245 246 245 247 245 232 224 224 224 221 222 224 223 222 226 228 222 216
351 350 350 353 351 346 344 346 349 355 0 359 346 340 337 334 330 323 327 331 325 317 315 315 311 311 313 313 316 323 324 319 317 321 321 311 309 322 328 333 333 324 316 305 287 276 274 278 287 281 256 251 249 237 241 243 231 229 239 245 240 240 246 237 231 241 248 249 255 254 250 244 243 245 242 233 220 215 214 213 215 217 217 218 220 223 220 218
353 352 351 353 355 348 343 345 352 356 355 348 344 343 337 335 337 334 334 333 328 320 312 311 306 301 309 315 314 318 319 315 314 316 310 300 302 310 312 321 329 328 322 313 300 288 278 262 266 277 266 256 251 233 235 245 235 224 228 233 230 228 235 243 239 239 244 253 254 254 258 247 242 241 236 229 221 211 206 202 201 203 205 207 211 217 219 218
354 354 353 355 356 350 343 346 352 351 346 343 346 346 340 337 339 341 339 335 331 323 315 315 309 297 305 312 312 317 318 314 312 312 309 307 308 308 306 313 321 322 318 312 304 299 286 262 257 267 264 260 256 247 246 246 232 223 226 231 231 226 226 235 240 233 233 245 248 247 264 252 244 245 238 226 215 203 194 186 182 184 183 189 205 216 218 215
357 356 355 356 357 355 353 351 349 346 344 344 345 345 343 339 338 343 342 339 336 326 320 322 317 303 307 309 309 316 317 312 310 311 312 310 308 310 310 312 316 320 320 315 310 307 293 272 263 262 265 269 267 267 264 252 239 236 234 234 235 233 230 230 235 231 229 238 242 245 262 257 249 254 246 216 197 184 175 171 168 170 170 170 184 198 205 210
0 358 356 358 1 6 4 354 349 348 347 345 342 343 348 343 337 340 342 341 342 335 327 327 321 312 314 312 311 317 319 316 314 315 313 306 310 318 316 314 321 325 322 314 312 312 291 272 268 268 277 278 269 262 261 258 257 252 242 234 234 234 230 231 240 243 240 239 236 238 251 249 251 252 221 172 178 175 163 162 162 160 164 163 166 174 183 196
1 359 358 359 2 9 4 358 355 352 350 348 344 343 347 347 339 338 342 344 345 342 332 328 327 321 318 317 314 318 321 313 309 321 321 312 318 327 321 318 326 328 326 321 317 311 293 276 272 279 290 285 264 245 241 245 256 258 247 232 229 233 232 233 238 240 243 241 233 238 249 243 248 243 202 164 177 177 164 161 159 154 160 164 166 168 169 179
1 360 358 358 1 6 4 3 2 358 355 353 349 344 343 347 343 338 342 344 344 343 333 326 333 328 322 321 314 318 323 305 297 322 331 322 320 327 325 326 330 332 339 343 322 297 289 279 268 269 281 286 285 288 275 264 265 264 251 235 226 227 229 232 235 232 234 236 230 235 244 240 245 240 208 183 182 181 174 171 165 160 165 169 172 177 179 181
0 0 358 357 358 2 5 6 3 359 358 357 352 344 339 346 350 341 340 342 341 343 335 325 332 330 324 322 318 324 335 323 302 318 327 321 318 324 329 331 334 340 347 350 333 296 282 277 270 264 265 277 291 296 299 299 292 272 254 243 233 228 227 230 233 231 231 235 235 235 239 242 246 245 225 207 202 202 196 191 191 196 199 196 191 193 202 208
359 2 0 358 358 360 2 5 3 358 359 358 355 347 340 344 354 350 344 342 340 342 337 329 332 331 327 328 329 333 339 335 325 323 320 318 323 331 338 341 343 346 347 345 345 328 285 278 281 276 278 291 300 300 299 298 292 279 264 253 242 235 229 227 230 233 233 240 245 240 239 244 242 243 246 231 223 238 246 233 234 233 220 213 215 220 228 231
358 2 1 358 358 1 0 360 359 358 358 357 355 353 347 342 348 353 348 343 342 341 336 333 331 328 331 336 335 336 339 337 337 339 332 328 334 340 346 354 355 352 353 351 352 349 298 286 293 289 293 306 311 308 300 291 287 280 270 261 252 243 232 226 229 234 233 238 247 248 247 248 245 245 248 244 247 255 250 239 241 237 227 224 231 238 240 237
354 358 360 357 357 1 1 357 357 358 356 355 357 359 353 342 342 350 349 342 342 340 333 333 331 329 338 343 334 334 340 335 333 343 344 337 340 344 348 358 3 359 360 359 357 356 314 294 307 301 301 312 318 314 303 291 285 274 263 260 257 250 233 226 228 233 235 241 249 255 259 256 251 249 245 245 255 253 238 226 227 230 236 247 249 245 240 238
352 355 359 357 354 358 360 356 356 357 353 354 358 358 354 344 337 343 348 342 337 335 333 333 334 338 346 348 338 335 338 331 325 334 338 333 337 347 348 356 6 9 9 2 352 351 327 311 325 315 303 314 321 313 305 298 289 276 263 258 256 250 235 224 225 230 236 242 245 251 260 259 254 251 247 248 252 244 234 236 241 245 263 271 258 245 241 240
348 350 353 354 351 355 357 354 356 359 352 349 352 353 353 347 336 336 344 347 335 331 335 337 336 345 352 349 344 341 338 335 328 329 331 328 333 346 355 5 12 13 13 6 350 343 327 320 330 320 299 307 312 308 312 303 284 276 266 258 251 241 231 224 224 227 231 237 242 244 249 254 254 252 250 251 251 246 242 246 253 264 275 271 258 246 239 238
345 348 350 353 353 353 354 355 356 357 347 343 347 350 350 346 339 334 337 346 342 330 334 340 338 346 353 349 349 349 344 344 341 337 336 334 338 355 12 24 26 17 12 8 356 349 338 323 324 319 302 301 302 308 316 301 286 285 271 267 257 244 237 230 228 229 230 233 237 237 241 248 253 253 252 250 247 246 247 249 255 265 266 256 248 242 237 236
Height
3143 3142 3140 3139 3138 3136 3135 3133 3131 3129 3128 3127 3125 3124 3123 3121 3121 3120 3119 3117 3116 3115 3114 3113 3112 3111 3110 3110 3109 3108 3107 3107 3106 3106 3105 3105 3105 3105 3105 3105 3105 3106 3106 3107 3108 3108 3110 3111 3113 3115 3117 3119 3120 3121 3123 3125 3128 3129 3130 3129 3126 3126 3128 3130 3133 3133 3135 3138 3140 3142 3142 3142 3147 3151 3152 3153 3155 3157 3159 3161 3161 3160 3162 3165 3165 3166 3169 3170
3143 3141 3140 3138 3137 3136 3134 3132 3130 3129 3127 3126 3125 3123 3122 3121 3120 3119 3117 3116 3115 3114 3112 3111 3110 3109 3109 3108 3107 3106 3105 3105 3104 3104 3103 3103 3103 3103 3103 3103 3103 3104 3105 3105 3106 3106 3107 3108 3110 3112 3114 3115 3116 3118 3119 3120 3123 3123 3125 3124 3121 3123 3126 3129 3131 3132 3133 3134 3137 3139 3139 3140 3144 3148 3149 3149 3151 3153 3155 3158 3159 3158 3159 3161 3163 3164 3166 3168
3142 3141 3139 3137 3136 3135 3133 3132 3130 3128 3127 3125 3124 3122 3121 3119 3118 3117 3116 3114 3113 3112 3111 3110 3109 3108 3107 3106 3106 3105 3104 3103 3103 3102 3101 3101 3101 3101 3101 3101 3102 3102 3103 3103 3104 3105 3105 3106 3107 3109 3111 3112 3113 3114 3115 3117 3117 3119 3121 3118 3118 3122 3125 3127 3128 3129 3130 3131 3134 3135 3137 3139 3141 3146 3147 3147 3149 3150 3151 3153 3155 3156 3156 3157 3160 3162 3163 3165
3142 3140 3138 3137 3135 3134 3133 3131 3129 3127 3125 3124 3122 3121 3119 3118 3117 3116 3114 3113 3112 3110 3109 3108 3107 3106 3105 3104 3104 3103 3103 3102 3101 3100 3100 3100 3099 3099 3099 3099 3099 3100 3100 3101 3102 3102 3103 3104 3105 3107 3108 3109 3110 3110 3112 3113 3113 3116 3116 3114 3118 3122 3123 3124 3122 3122 3124 3126 3129 3132 3135 3136 3138 3143 3144 3144 3146 3146 3146 3148 3151 3155 3156 3155 3157 3160 3161 3162
3141 3139 3138 3136 3135 3133 3132 3130 3128 3126 3124 3123 3121 3120 3118 3117 3116 3114 3112 3111 3110 3109 3108 3107 3105 3104 3103 3103 3102 3102 3102 3100 3099 3099 3099 3098 3098 3098 3098 3098 3097 3098 3098 3099 3100 3100 3101 3102 3103 3105 3106 3107 3108 3107 3109 3110 3110 3112 3112 3111 3117 3119 3118 3119 3114 3114 3119 3122 3124 3129 3132 3133 3136 3138 3139 3141 3141 3141 3144 3146 3149 3152 3156 3155 3155 3158 3159 3159
3141 3139 3137 3136 3134 3133 3131 3129 3127 3125 3124 3122 3121 3119 3117 3116 3114 3113 3111 3109 3109 3108 3106 3105 3104 3103 3102 3101 3101 3100 3100 3099 3098 3097 3097 3096 3096 3096 3096 3096 3096 3096 3097 3097 3098 3098 3099 3100 3102 3103 3104 3105 3106 3106 3107 3107 3106 3107 3108 3109 3113 3113 3112 3112 3109 3111 3116 3118 3121 3126 3129 3131 3133 3133 3134 3137 3136 3138 3143 3145 3148 3149 3153 3154 3152 3155 3158 3158
3140 3139 3137 3135 3133 3132 3130 3129 3127 3125 3123 3121 3120 3118 3116 3115 3113 3111 3110 3108 3107 3106 3105 3103 3102 3101 3100 3100 3099 3098 3098 3097 3096 3096 3095 3095 3095 3094 3094 3094 3094 3095 3095 3096 3096 3097 3098 3098 3100 3100 3102 3103 3103 3104 3104 3103 3103 3104 3106 3108 3109 3107 3105 3106 3106 3109 3113 3115 3118 3121 3123 3125 3128 3129 3131 3133 3133 3136 3140 3143 3145 3146 3148 3150 3149 3151 3154 3157
3140 3138 3136 3135 3133 3131 3130 3128 3126 3124 3122 3120 3119 3117 3115 3113 3111 3110 3108 3107 3105 3104 3103 3102 3101 3100 3099 3098 3097 3097 3096 3095 3095 3094 3094 3093 3093 3093 3093 3093 3093 3094 3094 3094 3095 3095 3096 3097 3098 3098 3100 3101 3100 3101 3101 3101 3102 3101 3103 3106 3103 3101 3101 3102 3104 3107 3109 3112 3114 3115 3117 3120 3124 3126 3126 3127 3129 3133 3137 3140 3142 3142 3144 3145 3146 3148 3151 3155
3140 3138 3136 3134 3132 3130 3129 3127 3125 3123 3121 3119 3117 3116 3114 3112 3110 3108 3107 3105 3104 3103 3102 3101 3100 3099 3098 3097 3096 3096 3095 3094 3094 3093 3093 3092 3092 3092 3092 3092 3092 3092 3092 3093 3093 3094 3095 3095 3095 3096 3097 3098 3097 3098 3098 3099 3101 3099 3100 3101 3098 3098 3098 3099 3101 3104 3107 3109 3111 3112 3114 3117 3120 3121 3119 3121 3125 3130 3134 3136 3139 3139 3139 3141 3143 3145 3148 3150
3139 3137 3135 3134 3132 3130 3128 3126 3124 3122 3120 3118 3116 3114 3112 3111 3109 3107 3105 3104 3102 3101 3101 3100 3099 3098 3097 3096 3095 3095 3094 3093 3093 3092 3092 3091 3091 3091 3091 3091 3091 3091 3091 3091 3092 3092 3092 3092 3093 3094 3095 3095 3095 3096 3095 3097 3098 3096 3096 3096 3095 3096 3096 3096 3099 3101 3104 3106 3107 3109 3111 3113 3116 3115 3112 3116 3122 3127 3130 3133 3136 3135 3134 3138 3140 3142 3145 3147
3138 3137 3135 3133 3131 3129 3127 3125 3123 3121 3119 3117 3115 3113 3111 3109 3107 3105 3104 3102 3101 3100 3100 3099 3097 3096 3096 3095 3095 3094 3093 3092 3092 3091 3091 3090 3090 3090 3090 3089 3089 3090 3090 3090 3090 3090 3090 3090 3091 3093 3094 3093 3093 3094 3093 3094 3094 3093 3093 3093 3094 3094 3094 3094 3095 3097 3100 3102 3105 3107 3108 3109 3111 3108 3106 3114 3120 3123 3126 3130 3131 3129 3131 3135 3137 3139 3142 3144
3138 3136 3134 3132 3130 3128 3126 3124 3122 3120 3118 3116 3114 3112 3110 3108 3106 3104 3103 3101 3100 3099 3098 3097 3096 3095 3095 3094 3094 3093 3092 3092 3091 3090 3090 3089 3089 3089 3089 3088 3088 3088 3088 3088 3088 3088 3088 3088 3089 3091 3091 3091 3092 3093 3091 3090 3091 3091 3091 3091 3092 3093 3092 3091 3092 3094 3097 3099 3102 3105 3104 3102 3103 3100 3103 3113 3116 3118 3122 3125 3125 3125 3129 3131 3132 3136 3138 3140
3137 3135 3133 3131 3129 3127 3124 3122 3120 3118 3116 3115 3113 3111 3108 3106 3105 3103 3101 3100 3099 3098 3097 3096 3095 3095 3094 3093 3093 3092 3092 3091 3090 3089 3089 3089 3088 3088 3088 3088 3087 3087 3087 3087 3086 3085 3086 3087 3087 3088 3088 3089 3090 3090 3088 3088 3089 3090 3090 3090 3091 3091 3089 3089 3090 3091 3093 3095 3099 3102 3098 3095 3096 3096 3103 3111 3112 3114 3117 3120 3121 3122 3126 3127 3128 3131 3134 3136
3136 3134 3132 3130 3128 3126 3123 3121 3119 3117 3115 3113 3111 3109 3107 3105 3103 3102 3100 3099 3098 3097 3096 3096 3095 3094 3094 3093 3093 3092 3091 3090 3089 3088 3088 3087 3087 3087 3086 3086 3086 3086 3086 3085 3085 3084 3084 3084 3085 3086 3086 3087 3087 3086 3087 3088 3087 3088 3090 3089 3088 3088 3087 3086 3087 3088 3090 3092 3094 3098 3093 3089 3093 3096 3103 3109 3109 3109 3111 3115 3117 3118 3121 3123 3125 3127 3130 3132
3136 3134 3131 3129 3127 3125 3122 3120 3118 3116 3114 3112 3110 3108 3106 3104 3102 3101 3099 3098 3097 3096 3096 3095 3094 3094 3093 3093 3092 3091 3090 3090 3089 3088 3087 3086 3086 3085 3084 3084 3083 3083 3084 3084 3083 3083 3083 3083 3083 3084 3084 3084 3085 3085 3086 3087 3086 3087 3087 3085 3085 3086 3084 3084 3084 3085 3088 3089 3091 3092 3088 3086 3090 3095 3101 3105 3105 3104 3105 3110 3114 3115 3116 3119 3121 3123 3126 3129
3135 3133 3130 3128 3126 3124 3121 3119 3116 3115 3113 3111 3109 3107 3104 3103 3101 3100 3098 3097 3096 3096 3095 3095 3094 3094 3093 3093 3092 3091 3090 3089 3088 3087 3086 3086 3085 3084 3083 3083 3082 3081 3081 3081 3082 3081 3081 3081 3081 3082 3082 3082 3083 3084 3085 3085 3084 3084 3083 3082 3082 3082 3082 3082 3081 3082 3085 3087 3087 3087 3084 3084 3088 3093 3097 3100 3100 3098 3100 3105 3109 3110 3112 3114 3117 3119 3122 3124
3134 3132 3129 3127 3125 3123 3120 3118 3116 3114 3112 3110 3108 3105 3104 3102 3100 3099 3098 3097 3096 3095 3095 3095 3094 3093 3093 3092 3091 3090 3089 3088 3087 3086 3085 3084 3084 3083 3083 3082 3081 3081 3080 3080 3080 3080 3080 3080 3080 3081 3080 3081 3082 3083 3083 3082 3080 3080 3080 3080 3080 3080 3080 3081 3080 3079 3081 3083 3084 3083 3081 3082 3086 3090 3093 3095 3094 3093 3096 3101 3103 3106 3108 3110 3113 3115 3117 3120
3133 3130 3128 3126 3124 3122 3119 3117 3115 3113 3111 3109 3107 3105 3103 3101 3099 3098 3097 3096 3095 3095 3095 3094 3094 3094 3093 3091 3090 3090 3088 3086 3084 3084 3084 3083 3083 3082 3082 3081 3081 3080 3080 3080 3079 3079 3080 3079 3080 3081 3080 3080 3080 3081 3080 3079 3078 3078 3077 3078 3078 3077 3078 3079 3078 3078 3079 3080 3080 3080 3079 3080 3084 3087 3088 3090 3090 3089 3092 3096 3098 3101 3103 3105 3109 3111 3113 3115
3131 3129 3127 3125 3123 3121 3119 3116 3114 3112 3110 3107 3106 3104 3102 3100 3098 3097 3096 3095 3095 3095 3094 3094 3093 3094 3093 3091 3090 3088 3087 3085 3082 3082 3082 3082 3081 3081 3080 3080 3080 3079 3080 3081 3080 3079 3079 3079 3079 3080 3080 3079 3078 3078 3078 3077 3078 3078 3078 3078 3077 3076 3076 3076 3077 3077 3077 3077 3077 3077 3077 3078 3081 3082 3084 3086 3086 3086 3087 3091 3094 3096 3098 3100 3103 3106 3109 3111
3130 3128 3126 3124 3122 3120 3118 3116 3113 3111 3109 3107 3105 3103 3101 3099 3098 3096 3096 3095 3095 3094 3094 3093 3093 3092 3092 3090 3089 3087 3086 3084 3081 3079 3081 3081 3080 3079 3079 3078 3078 3078 3079 3081 3080 3078 3078 3079 3078 3078 3078 3077 3077 3076 3076 3076 3076 3076 3077 3076 3076 3075 3074 3074 3075 3075 3075 3075 3075 3075 3075 3076 3077 3078 3079 3081 3082 3081 3082 3086 3088 3090 3092 3095 3098 3101 3104 3107
3129 3127 3125 3123 3121 3119 3117 3115 3112 3110 3108 3106 3104 3102 3100 3099 3097 3096 3095 3094 3094 3093 3093 3092 3091 3091 3090 3088 3087 3086 3084 3083 3080 3079 3080 3079 3079 3079 3078 3077 3077 3078 3078 3078 3078 3076 3075 3076 3076 3076 3076 3075 3075 3074 3073 3073 3073 3074 3074 3074 3073 3072 3072 3072 3073 3073 3074 3073 3072 3073 3073 3073 3074 3074 3075 3076 3076 3076 3078 3081 3083 3085 3088 3090 3093 3096 3099 3103
3128 3126 3124 3122 3119 3117 3115 3113 3111 3109 3107 3105 3103 3101 3100 3098 3097 3095 3094 3093 3093 3092 3092 3091 3090 3089 3088 3087 3085 3085 3083 3082 3080 3079 3079 3078 3078 3078 3077 3077 3077 3078 3077 3075 3075 3075 3074 3074 3074 3074 3073 3072 3072 3072 3071 3071 3071 3071 3071 3071 3070 3069 3069 3069 3069 3070 3071 3071 3069 3070 3070 3070 3071 3071 3071 3072 3072 3073 3075 3077 3079 3081 3083 3085 3088 3091 3094 3098
3127 3124 3122 3120 3118 3116 3114 3112 3110 3108 3106 3104 3102 3100 3099 3098 3096 3094 3093 3092 3092 3091 3091 3090 3089 3088 3086 3085 3084 3083 3082 3081 3080 3079 3078 3077 3076 3076 3076 3075 3076 3076 3075 3074 3074 3074 3073 3072 3071 3070 3070 3069 3070 3070 3069 3069 3069 3068 3068 3068 3066 3067 3067 3066 3066 3067 3068 3068 3067 3068 3067 3066 3067 3067 3067 3068 3068 3070 3071 3073 3075 3076 3078 3080 3083 3087 3090 3093
3125 3123 3121 3119 3117 3115 3113 3111 3109 3107 3105 3103 3101 3099 3098 3096 3095 3093 3092 3091 3090 3090 3090 3089 3088 3087 3086 3084 3083 3082 3081 3080 3079 3078 3077 3076 3075 3075 3074 3074 3074 3074 3073 3073 3072 3071 3070 3070 3068 3067 3067 3067 3068 3068 3067 3067 3066 3065 3065 3065 3064 3064 3065 3065 3065 3065 3065 3064 3064 3066 3064 3061 3062 3062 3062 3064 3065 3066 3067 3068 3069 3070 3072 3075 3078 3081 3084 3088
3124 3122 3120 3118 3116 3114 3112 3110 3108 3106 3104 3102 3100 3098 3097 3095 3093 3092 3091 3090 3090 3089 3089 3088 3087 3086 3084 3083 3082 3081 3079 3078 3077 3076 3075 3074 3074 3074 3073 3072 3072 3072 3072 3071 3070 3068 3067 3067 3066 3065 3065 3065 3065 3065 3065 3065 3064 3063 3062 3062 3063 3063 3063 3064 3064 3064 3063 3060 3060 3062 3059 3054 3056 3057 3057 3060 3061 3062 3063 3064 3065 3066 3068 3071 3073 3076 3079 3082
3123 3121 3119 3117 3115 3113 3111 3109 3107 3105 3103 3101 3099 3097 3096 3094 3092 3091 3089 3089 3090 3090 3089 3088 3086 3085 3083 3082 3081 3080 3079 3077 3076 3075 3074 3073 3073 3072 3071 3071 3070 3070 3070 3068 3067 3065 3064 3063 3062 3063 3063 3063 3063 3062 3063 3063 3062 3061 3059 3059 3060 3061 3061 3061 3062 3061 3059 3057 3056 3057 3055 3050 3050 3051 3052 3055 3057 3058 3060 3060 3061 3063 3065 3066 3068 3071 3075 3078
3123 3120 3118 3116 3114 3112 3110 3108 3106 3104 3102 3100 3099 3097 3095 3093 3091 3090 3089 3089 3090 3089 3089 3088 3086 3085 3082 3081 3080 3079 3080 3078 3075 3074 3073 3072 3071 3069 3069 3070 3069 3069 3068 3067 3065 3061 3060 3060 3060 3060 3061 3061 3060 3060 3059 3060 3060 3059 3057 3057 3058 3059 3059 3058 3059 3058 3056 3055 3054 3054 3054 3051 3047 3047 3049 3051 3052 3053 3055 3057 3058 3060 3061 3063 3065 3067 3070 3074
3122 3119 3117 3115 3113 3111 3109 3107 3106 3104 3101 3100 3098 3096 3094 3093 3091 3090 3089 3089 3089 3089 3087 3086 3085 3083 3082 3080 3079 3078 3078 3077 3076 3074 3071 3070 3069 3068 3067 3068 3068 3067 3067 3066 3064 3060 3059 3059 3059 3059 3059 3058 3057 3057 3057 3057 3057 3056 3056 3055 3056 3057 3056 3056 3056 3054 3054 3053 3050 3050 3052 3049 3044 3044 3047 3048 3049 3050 3051 3053 3055 3057 3058 3060 3061 3062 3065 3069
3121 3119 3116 3114 3112 3110 3108 3107 3105 3103 3101 3099 3097 3095 3093 3092 3090 3089 3089 3090 3089 3088 3087 3085 3084 3082 3081 3080 3079 3078 3076 3075 3075 3073 3070 3068 3067 3067 3066 3065 3065 3064 3064 3064 3061 3059 3059 3059 3058 3057 3056 3055 3054 3055 3055 3054 3053 3054 3055 3054 3054 3054 3053 3053 3052 3051 3051 3049 3045 3046 3048 3045 3039 3040 3043 3044 3045 3046 3047 3049 3051 3053 3056 3057 3058 3059 3061 3065
3120 3118 3115 3113 3110 3108 3107 3106 3104 3102 3100 3098 3097 3095 3093 3091 3090 3089 3089 3090 3089 3088 3086 3085 3084 3082 3080 3080 3079 3078 3076 3075 3073 3072 3070 3068 3066 3064 3063 3062 3061 3060 3060 3059 3057 3055 3055 3056 3054 3052 3051 3051 3051 3052 3052 3052 3051 3052 3053 3052 3051 3050 3050 3050 3048 3049 3047 3042 3040 3042 3044 3042 3036 3035 3038 3039 3040 3042 3044 3045 3047 3050 3053 3054 3054 3054 3057 3060
3119 3117 3114 3112 3109 3107 3105 3104 3103 3101 3099 3098 3096 3094 3092 3091 3090 3090 3090 3090 3089 3088 3086 3084 3083 3081 3080 3079 3078 3077 3076 3074 3072 3071 3069 3068 3066 3063 3062 3061 3059 3058 3057 3055 3054 3053 3052 3051 3050 3047 3046 3047 3048 3048 3049 3049 3049 3049 3049 3049 3048 3046 3046 3045 3044 3045 3042 3035 3035 3037 3040 3040 3034 3031 3034 3036 3036 3039 3040 3042 3045 3047 3050 3051 3050 3051 3054 3057
3118 3115 3113 3110 3108 3106 3104 3103 3101 3100 3098 3097 3095 3093 3091 3091 3090 3091 3091 3089 3088 3087 3085 3083 3081 3080 3079 3078 3077 3076 3075 3073 3071 3070 3069 3067 3065 3064 3062 3062 3060 3058 3055 3053 3052 3050 3048 3047 3046 3045 3044 3044 3045 3045 3045 3045 3046 3046 3046 3047 3045 3042 3042 3041 3038 3038 3035 3030 3031 3033 3034 3033 3029 3029 3032 3033 3034 3036 3037 3039 3042 3044 3046 3047 3048 3049 3051 3053
3116 3114 3111 3109 3107 3105 3104 3102 3101 3099 3098 3096 3095 3093 3092 3092 3091 3092 3091 3089 3088 3086 3084 3082 3080 3079 3078 3077 3077 3075 3073 3072 3070 3069 3068 3066 3064 3063 3061 3060 3059 3058 3055 3053 3051 3048 3044 3042 3042 3043 3042 3041 3041 3042 3042 3042 3042 3042 3042 3042 3041 3038 3038 3037 3032 3030 3028 3026 3027 3030 3029 3026 3024 3026 3028 3029 3031 3032 3033 3035 3038 3040 3042 3044 3045 3046 3048 3050
3115 3112 3110 3107 3106 3104 3103 3102 3100 3098 3097 3095 3094 3092 3092 3092 3091 3091 3090 3089 3087 3085 3083 3081 3078 3077 3076 3076 3075 3073 3072 3072 3070 3068 3067 3065 3064 3062 3060 3059 3057 3056 3055 3053 3050 3046 3043 3041 3040 3040 3040 3038 3037 3038 3038 3039 3039 3038 3038 3039 3036 3034 3034 3031 3026 3025 3025 3023 3022 3023 3023 3021 3021 3022 3024 3025 3026 3028 3029 3031 3033 3035 3037 3039 3041 3043 3044 3046
3114 3111 3108 3106 3104 3103 3102 3101 3099 3098 3096 3095 3093 3092 3093 3093 3092 3090 3089 3088 3086 3084 3082 3080 3078 3076 3076 3075 3074 3072 3071 3070 3068 3067 3065 3064 3063 3061 3059 3057 3055 3054 3054 3052 3048 3045 3043 3041 3039 3038 3037 3036 3036 3036 3036 3037 3036 3034 3035 3035 3032 3030 3031 3028 3025 3026 3027 3025 3022 3020 3018 3017 3018 3019 3020 3022 3022 3023 3025 3027 3029 3031 3033 3035 3036 3038 3041 3042
3112 3110 3107 3105 3103 3102 3101 3100 3098 3097 3096 3094 3093 3094 3094 3092 3091 3090 3088 3086 3084 3082 3080 3079 3077 3076 3076 3075 3073 3073 3071 3068 3067 3066 3064 3062 3061 3059 3057 3055 3054 3053 3052 3050 3048 3045 3042 3039 3037 3035 3033 3033 3034 3034 3034 3033 3032 3031 3031 3029 3028 3029 3030 3029 3026 3027 3029 3027 3022 3019 3017 3017 3017 3015 3016 3018 3018 3019 3021 3023 3025 3026 3029 3031 3033 3034 3037 3039
3111 3108 3106 3104 3102 3101 3100 3099 3098 3097 3095 3094 3094 3094 3093 3091 3089 3088 3087 3084 3083 3081 3079 3079 3077 3075 3075 3074 3073 3073 3071 3069 3067 3065 3062 3061 3058 3056 3055 3053 3052 3051 3050 3049 3047 3044 3041 3035 3033 3033 3031 3030 3031 3031 3030 3029 3028 3028 3027 3026 3027 3028 3029 3028 3026 3026 3027 3024 3018 3016 3016 3015 3013 3010 3011 3013 3013 3015 3017 3019 3021 3023 3025 3028 3029 3030 3033 3036
3110 3107 3105 3103 3102 3100 3099 3098 3097 3096 3095 3094 3094 3093 3091 3090 3088 3086 3085 3083 3082 3081 3080 3080 3077 3075 3074 3073 3072 3072 3070 3068 3067 3065 3062 3059 3056 3054 3052 3051 3050 3049 3048 3047 3044 3042 3039 3032 3027 3029 3029 3027 3028 3028 3026 3024 3024 3025 3025 3025 3026 3026 3025 3025 3025 3023 3023 3020 3015 3013 3012 3011 3009 3007 3006 3007 3008 3011 3014 3016 3018 3020 3022 3023 3025 3027 3030 3033
3109 3106 3104 3103 3101 3100 3099 3098 3097 3096 3094 3094 3094 3092 3090 3089 3086 3084 3084 3082 3081 3080 3080 3079 3078 3075 3073 3072 3071 3070 3069 3067 3065 3064 3061 3058 3055 3051 3050 3049 3047 3046 3044 3044 3041 3038 3038 3033 3026 3024 3026 3025 3024 3024 3021 3020 3021 3023 3024 3024 3024 3023 3022 3022 3021 3019 3018 3016 3013 3011 3009 3008 3007 3006 3005 3004 3005 3007 3010 3012 3015 3017 3019 3020 3021 3023 3026 3029
3108 3106 3104 3103 3101 3099 3098 3097 3096 3095 3094 3094 3093 3091 3089 3088 3085 3084 3082 3081 3080 3079 3078 3077 3077 3074 3072 3071 3070 3069 3068 3066 3064 3062 3060 3058 3054 3050 3048 3047 3044 3042 3040 3039 3038 3035 3035 3032 3025 3022 3023 3022 3020 3018 3016 3017 3019 3020 3020 3019 3019 3020 3020 3019 3017 3016 3016 3013 3011 3011 3008 3004 3004 3004 3003 3003 3004 3005 3007 3010 3012 3015 3016 3018 3019 3021 3023 3026
3108 3106 3104 3102 3101 3099 3097 3096 3096 3095 3094 3093 3092 3090 3089 3087 3085 3084 3082 3080 3079 3078 3076 3075 3075 3074 3072 3071 3070 3068 3066 3064 3062 3060 3057 3055 3053 3049 3046 3045 3043 3040 3037 3035 3034 3033 3032 3029 3023 3021 3020 3017 3015 3014 3013 3014 3014 3015 3016 3015 3015 3016 3017 3016 3014 3013 3013 3011 3008 3010 3006 3001 3001 3002 3000 3001 3002 3003 3005 3007 3010 3012 3014 3015 3016 3018 3021 3023
3108 3106 3104 3102 3100 3098 3097 3096 3095 3094 3093 3091 3090 3089 3088 3086 3084 3083 3081 3080 3079 3077 3075 3074 3073 3073 3072 3070 3068 3067 3065 3062 3060 3058 3055 3053 3052 3050 3046 3043 3040 3037 3033 3030 3029 3029 3028 3025 3020 3018 3015 3012 3011 3012 3010 3009 3010 3012 3012 3012 3013 3014 3013 3012 3010 3009 3010 3008 3007 3009 3005 2999 3000 3000 2998 2998 3000 3002 3004 3006 3008 3011 3013 3013 3015 3017 3018 3021
3108 3106 3104 3102 3100 3099 3098 3097 3095 3094 3092 3090 3088 3087 3086 3085 3083 3082 3080 3079 3078 3076 3074 3073 3072 3071 3070 3069 3067 3065 3064 3060 3056 3055 3054 3051 3050 3048 3045 3042 3038 3034 3030 3027 3026 3026 3025 3022 3018 3014 3010 3007 3008 3008 3006 3005 3008 3008 3007 3008 3010 3010 3010 3010 3009 3008 3008 3005 3005 3006 3001 2997 2999 2999 2997 2998 3000 3001 3003 3005 3008 3010 3011 3013 3014 3016 3017 3019
3107 3106 3104 3102 3100 3099 3098 3097 3095 3094 3092 3090 3087 3085 3084 3084 3082 3080 3079 3078 3076 3075 3073 3071 3071 3070 3068 3067 3065 3064 3063 3060 3055 3053 3052 3049 3047 3046 3043 3039 3035 3032 3029 3025 3024 3024 3022 3020 3017 3014 3009 3005 3004 3004 3004 3004 3005 3003 3002 3004 3006 3006 3008 3008 3008 3008 3006 3003 3003 3002 2997 2995 2999 2998 2997 2998 3000 3001 3002 3004 3006 3009 3011 3012 3013 3015 3016 3018
3106 3105 3103 3101 3100 3099 3098 3096 3095 3093 3091 3089 3087 3085 3084 3083 3081 3079 3077 3076 3075 3073 3072 3070 3070 3069 3067 3066 3064 3062 3062 3060 3055 3051 3048 3045 3044 3044 3042 3037 3033 3029 3027 3024 3023 3021 3020 3018 3016 3014 3010 3006 3003 3002 3002 3002 3003 3001 3000 3001 3002 3003 3004 3005 3006 3006 3002 3001 3002 2999 2995 2996 2998 2998 2998 2999 3000 3002 3002 3002 3005 3008 3011 3012 3012 3013 3014 3016
3105 3104 3102 3100 3099 3098 3097 3095 3094 3092 3090 3089 3087 3085 3083 3082 3081 3078 3076 3075 3073 3072 3071 3069 3068 3067 3066 3064 3062 3060 3059 3058 3055 3050 3047 3045 3043 3042 3039 3035 3031 3028 3025 3023 3022 3020 3017 3014 3013 3012 3010 3007 3004 3002 3001 3000 3000 2999 2998 2998 2999 2999 3001 3003 3003 3000 2999 3000 2998 2995 2996 2998 2997 2998 2999 2999 2999 3002 3003 3004 3006 3008 3009 3010 3011 3011 3012 3014
3105 3103 3102 3100 3098 3097 3095 3094 3092 3091 3089 3088 3086 3084 3081 3080 3080 3078 3075 3074 3072 3071 3070 3068 3067 3066 3065 3062 3059 3056 3055 3055 3053 3050 3048 3045 3041 3039 3036 3032 3029 3026 3024 3022 3020 3018 3016 3013 3011 3010 3008 3006 3003 3001 3000 2999 2997 2996 2996 2995 2995 2995 2997 2999 2997 2997 3000 2999 2993 2993 2997 2997 2995 2997 2999 2999 2999 3001 3002 3003 3004 3006 3006 3006 3008 3009 3010 3012
3104 3103 3102 3100 3099 3097 3095 3093 3091 3089 3087 3086 3085 3083 3080 3078 3077 3076 3074 3072 3070 3069 3068 3067 3066 3065 3064 3062 3058 3055 3052 3051 3049 3048 3047 3043 3039 3035 3033 3030 3028 3025 3023 3021 3018 3017 3015 3012 3009 3008 3005 3003 3002 2999 2997 2996 2995 2994 2993 2993 2992 2992 2993 2993 2994 2996 2999 2995 2992 2994 2996 2994 2994 2997 2997 2998 2999 2999 2999 3000 3001 3002 3003 3004 3005 3006 3008 3010
3103 3102 3101 3100 3098 3097 3094 3092 3090 3087 3086 3084 3083 3082 3079 3077 3075 3075 3073 3070 3069 3068 3067 3065 3065 3063 3062 3061 3058 3055 3053 3050 3046 3045 3044 3041 3038 3035 3031 3028 3027 3024 3021 3020 3018 3016 3014 3011 3008 3007 3003 3000 2999 2997 2995 2995 2993 2992 2991 2990 2989 2989 2989 2990 2993 2995 2995 2994 2994 2995 2995 2993 2994 2995 2996 2998 2998 2998 2997 2997 2998 3000 3001 3002 3003 3004 3005 3007
3102 3101 3099 3098 3097 3095 3093 3091 3088 3086 3084 3083 3082 3081 3079 3076 3074 3073 3072 3070 3067 3066 3065 3064 3063 3062 3061 3060 3058 3055 3053 3051 3047 3044 3042 3040 3038 3036 3032 3029 3026 3023 3021 3019 3017 3015 3013 3010 3007 3006 3002 2998 2997 2996 2994 2993 2992 2991 2990 2989 2988 2987 2987 2988 2990 2992 2993 2993 2993 2995 2994 2991 2991 2993 2995 2996 2997 2997 2997 2997 2997 2998 2999 2999 3000 3001 3003 3004
3102 3100 3099 3097 3096 3094 3092 3090 3087 3086 3084 3082 3081 3080 3078 3076 3073 3071 3070 3069 3066 3064 3064 3063 3061 3060 3059 3058 3056 3054 3052 3050 3048 3045 3043 3041 3038 3036 3034 3030 3025 3022 3019 3018 3016 3014 3012 3009 3006 3005 3002 2998 2996 2994 2993 2992 2991 2989 2988 2987 2986 2985 2985 2986 2987 2989 2989 2989 2991 2993 2990 2986 2988 2992 2994 2994 2995 2996 2996 2996 2996 2997 2997 2997 2998 2998 2999 3001
3102 3100 3098 3097 3095 3093 3092 3089 3087 3086 3084 3082 3080 3078 3077 3075 3072 3069 3067 3067 3065 3063 3062 3061 3060 3058 3057 3056 3054 3053 3050 3048 3046 3043 3042 3040 3039 3038 3035 3030 3026 3023 3020 3017 3015 3014 3012 3008 3006 3004 3001 2997 2994 2993 2992 2991 2990 2987 2986 2985 2984 2984 2984 2984 2985 2985 2986 2987 2988 2988 2985 2985 2988 2992 2992 2992 2994 2994 2994 2995 2995 2995 2995 2994 2995 2995 2996 2998